owner,sensor,date,latitude,longitude,sea_surface_height_above_sea_level,qcFlag 
TCOON,ioos:station:TCOON:009:1,2017-10-01T00:18:00Z,27.8398,-97.0727,1.807,1111122 
TCOON,ioos:station:TCOON:009:1,2017-10-01T01:18:00Z,27.8398,-97.0727,1.809,1111122 
TCOON,ioos:station:TCOON:009:1,2017-10-01T02:18:00Z,27.8398,-97.0727,1.886,1111122 
TCOON,ioos:station:TCOON:009:1,2017-10-01T03:18:00Z,27.8398,-97.0727,1.895,1111122 
TCOON,ioos:station:TCOON:009:1,2017-10-01T04:18:00Z,27.8398,-97.0727,1.951,1111122 
TCOON,ioos:station:TCOON:009:1,2017-10-01T05:18:00Z,27.8398,-97.0727,1.986,1111122 
TCOON,ioos:station:TCOON:009:1,2017-10-01T06:18:00Z,27.8398,-97.0727,2.004,1111122 
TCOON,ioos:station:TCOON:009:1,2017-10-01T07:18:00Z,27.8398,-97.0727,2.007,1111122 
TCOON,ioos:station:TCOON:009:1,2017-10-01T08:18:00Z,27.8398,-97.0727,1.997,1111122 
TCOON,ioos:station:TCOON:009:1,2017-10-01T09:18:00Z,27.8398,-97.0727,1.991,1111122 
TCOON,ioos:station:TCOON:009:1,2017-10-01T10:18:00Z,27.8398,-97.0727,2.012,1111122 
TCOON,ioos:station:TCOON:009:1,2017-10-01T11:18:00Z,27.8398,-97.0727,1.998,1111122 
TCOON,ioos:station:TCOON:009:1,2017-10-01T12:18:00Z,27.8398,-97.0727,1.987,1111122 
TCOON,ioos:station:TCOON:009:1,2017-10-01T13:18:00Z,27.8398,-97.0727,1.976,1111122 
TCOON,ioos:station:TCOON:009:1,2017-10-01T14:18:00Z,27.8398,-97.0727,1.994,1111122 
TCOON,ioos:station:TCOON:009:1,2017-10-01T15:18:00Z,27.8398,-97.0727,1.977,1111122 
TCOON,ioos:station:TCOON:009:1,2017-10-01T16:18:00Z,27.8398,-97.0727,1.918,1111122 
TCOON,ioos:station:TCOON:009:1,2017-10-01T17:18:00Z,27.8398,-97.0727,1.972,1111122 
TCOON,ioos:station:TCOON:009:1,2017-10-01T18:18:00Z,27.8398,-97.0727,1.957,1111122 
TCOON,ioos:station:TCOON:009:1,2017-10-01T19:18:00Z,27.8398,-97.0727,1.912,1111122 
TCOON,ioos:station:TCOON:009:1,2017-10-01T20:18:00Z,27.8398,-97.0727,1.891,1111122 
TCOON,ioos:station:TCOON:009:1,2017-10-01T21:18:00Z,27.8398,-97.0727,1.862,1111122 
TCOON,ioos:station:TCOON:009:1,2017-10-01T22:18:00Z,27.8398,-97.0727,1.814,1111122 
TCOON,ioos:station:TCOON:009:1,2017-10-01T23:18:00Z,27.8398,-97.0727,1.798,1111122 
TCOON,ioos:station:TCOON:009:1,2017-10-02T00:18:00Z,27.8398,-97.0727,1.788,1111122 
TCOON,ioos:station:TCOON:009:1,2017-10-02T01:18:00Z,27.8398,-97.0727,1.793,1111122 
TCOON,ioos:station:TCOON:009:1,2017-10-02T02:18:00Z,27.8398,-97.0727,1.845,1111122 
TCOON,ioos:station:TCOON:009:1,2017-10-02T03:18:00Z,27.8398,-97.0727,1.899,1111122 
TCOON,ioos:station:TCOON:009:1,2017-10-02T04:18:00Z,27.8398,-97.0727,1.942,1111122 
TCOON,ioos:station:TCOON:009:1,2017-10-02T05:18:00Z,27.8398,-97.0727,1.981,1111122 
TCOON,ioos:station:TCOON:009:1,2017-10-02T06:48:00Z,27.8398,-97.0727,1.989,1111122 
TCOON,ioos:station:TCOON:009:1,2017-10-02T07:18:00Z,27.8398,-97.0727,2.016,1111122 
TCOON,ioos:station:TCOON:009:1,2017-10-02T08:18:00Z,27.8398,-97.0727,2.03,1111122 
TCOON,ioos:station:TCOON:009:1,2017-10-02T09:18:00Z,27.8398,-97.0727,2.027,1111122 
TCOON,ioos:station:TCOON:009:1,2017-10-02T10:18:00Z,27.8398,-97.0727,2.038,1111122 
TCOON,ioos:station:TCOON:009:1,2017-10-02T11:18:00Z,27.8398,-97.0727,2.047,1111122 
TCOON,ioos:station:TCOON:009:1,2017-10-02T12:18:00Z,27.8398,-97.0727,2.031,1111122 
TCOON,ioos:station:TCOON:009:1,2017-10-02T13:18:00Z,27.8398,-97.0727,2.032,1111122 
TCOON,ioos:station:TCOON:009:1,2017-10-02T14:18:00Z,27.8398,-97.0727,2.058,1111122 
TCOON,ioos:station:TCOON:009:1,2017-10-02T15:18:00Z,27.8398,-97.0727,2.074,1111122 
TCOON,ioos:station:TCOON:009:1,2017-10-02T16:18:00Z,27.8398,-97.0727,2.093,1111122 
TCOON,ioos:station:TCOON:009:1,2017-10-02T17:18:00Z,27.8398,-97.0727,2.1,1111122 
TCOON,ioos:station:TCOON:009:1,2017-10-02T18:18:00Z,27.8398,-97.0727,2.077,1111122 
TCOON,ioos:station:TCOON:009:1,2017-10-02T19:18:00Z,27.8398,-97.0727,2.078,1111122 
TCOON,ioos:station:TCOON:009:1,2017-10-02T20:18:00Z,27.8398,-97.0727,2.055,1111122 
TCOON,ioos:station:TCOON:009:1,2017-10-02T21:18:00Z,27.8398,-97.0727,2.026,1111122 
TCOON,ioos:station:TCOON:009:1,2017-10-02T22:18:00Z,27.8398,-97.0727,2.003,1111122 
TCOON,ioos:station:TCOON:009:1,2017-10-02T23:18:00Z,27.8398,-97.0727,1.976,1111122 
TCOON,ioos:station:TCOON:009:1,2017-10-03T00:18:00Z,27.8398,-97.0727,1.948,1111122 
TCOON,ioos:station:TCOON:009:1,2017-10-03T01:18:00Z,27.8398,-97.0727,1.946,1111122 
TCOON,ioos:station:TCOON:009:1,2017-10-03T02:18:00Z,27.8398,-97.0727,1.971,1111122 
TCOON,ioos:station:TCOON:009:1,2017-10-03T03:18:00Z,27.8398,-97.0727,2.021,1111122 
TCOON,ioos:station:TCOON:009:1,2017-10-03T04:18:00Z,27.8398,-97.0727,2.031,1111122 
TCOON,ioos:station:TCOON:009:1,2017-10-03T05:18:00Z,27.8398,-97.0727,2.081,1111122 
TCOON,ioos:station:TCOON:009:1,2017-10-03T06:18:00Z,27.8398,-97.0727,2.119,1111122 
TCOON,ioos:station:TCOON:009:1,2017-10-03T07:18:00Z,27.8398,-97.0727,2.128,1111122 
TCOON,ioos:station:TCOON:009:1,2017-10-03T08:18:00Z,27.8398,-97.0727,2.142,1111122 
TCOON,ioos:station:TCOON:009:1,2017-10-03T09:18:00Z,27.8398,-97.0727,2.136,1111122 
TCOON,ioos:station:TCOON:009:1,2017-10-03T11:30:00Z,27.8398,-97.0727,2.14,1111122 
TCOON,ioos:station:TCOON:009:1,2017-10-03T12:18:00Z,27.8398,-97.0727,2.132,1111122 
TCOON,ioos:station:TCOON:009:1,2017-10-03T13:18:00Z,27.8398,-97.0727,2.151,1111122 
TCOON,ioos:station:TCOON:009:1,2017-10-03T14:18:00Z,27.8398,-97.0727,2.183,1111122 
TCOON,ioos:station:TCOON:009:1,2017-10-03T15:18:00Z,27.8398,-97.0727,2.159,1111122 
TCOON,ioos:station:TCOON:009:1,2017-10-03T16:18:00Z,27.8398,-97.0727,2.178,1111122 
TCOON,ioos:station:TCOON:009:1,2017-10-03T17:18:00Z,27.8398,-97.0727,2.2,1111122 
TCOON,ioos:station:TCOON:009:1,2017-10-03T18:18:00Z,27.8398,-97.0727,2.212,1111122 
TCOON,ioos:station:TCOON:009:1,2017-10-03T19:18:00Z,27.8398,-97.0727,2.2,1111122 
TCOON,ioos:station:TCOON:009:1,2017-10-03T20:18:00Z,27.8398,-97.0727,2.172,1111122 
TCOON,ioos:station:TCOON:009:1,2017-10-03T21:18:00Z,27.8398,-97.0727,2.171,1111122 
TCOON,ioos:station:TCOON:009:1,2017-10-03T22:18:00Z,27.8398,-97.0727,2.1,1111122 
TCOON,ioos:station:TCOON:009:1,2017-10-03T23:18:00Z,27.8398,-97.0727,2.059,1111122 
TCOON,ioos:station:TCOON:009:1,2017-10-04T00:18:00Z,27.8398,-97.0727,2.047,1111122 
TCOON,ioos:station:TCOON:009:1,2017-10-04T01:18:00Z,27.8398,-97.0727,2.043,1111122 
TCOON,ioos:station:TCOON:009:1,2017-10-04T02:18:00Z,27.8398,-97.0727,2.033,1111122 
TCOON,ioos:station:TCOON:009:1,2017-10-04T03:18:00Z,27.8398,-97.0727,2.046,1111122 
TCOON,ioos:station:TCOON:009:1,2017-10-04T04:18:00Z,27.8398,-97.0727,2.105,1111122 
TCOON,ioos:station:TCOON:009:1,2017-10-04T05:18:00Z,27.8398,-97.0727,2.166,1111122 
TCOON,ioos:station:TCOON:009:1,2017-10-04T06:18:00Z,27.8398,-97.0727,2.195,1111122 
TCOON,ioos:station:TCOON:009:1,2017-10-04T07:18:00Z,27.8398,-97.0727,2.22,1111122 
TCOON,ioos:station:TCOON:009:1,2017-10-04T08:18:00Z,27.8398,-97.0727,2.22,1111122 
TCOON,ioos:station:TCOON:009:1,2017-10-04T09:18:00Z,27.8398,-97.0727,2.225,1111122 
TCOON,ioos:station:TCOON:009:1,2017-10-04T11:12:00Z,27.8398,-97.0727,2.214,1111122 
TCOON,ioos:station:TCOON:009:1,2017-10-04T12:18:00Z,27.8398,-97.0727,2.204,1111122 
TCOON,ioos:station:TCOON:009:1,2017-10-04T13:18:00Z,27.8398,-97.0727,2.222,1111122 
TCOON,ioos:station:TCOON:009:1,2017-10-04T14:18:00Z,27.8398,-97.0727,2.232,1111122 
TCOON,ioos:station:TCOON:009:1,2017-10-04T15:18:00Z,27.8398,-97.0727,2.256,1111122 
TCOON,ioos:station:TCOON:009:1,2017-10-04T16:18:00Z,27.8398,-97.0727,2.26,1111122 
TCOON,ioos:station:TCOON:009:1,2017-10-04T17:18:00Z,27.8398,-97.0727,2.286,1111122 
TCOON,ioos:station:TCOON:009:1,2017-10-04T18:18:00Z,27.8398,-97.0727,2.317,1111122 
TCOON,ioos:station:TCOON:009:1,2017-10-04T19:18:00Z,27.8398,-97.0727,2.331,1111122 
TCOON,ioos:station:TCOON:009:1,2017-10-04T20:18:00Z,27.8398,-97.0727,2.355,1111122 
TCOON,ioos:station:TCOON:009:1,2017-10-04T21:18:00Z,27.8398,-97.0727,2.337,1111122 
TCOON,ioos:station:TCOON:009:1,2017-10-04T22:18:00Z,27.8398,-97.0727,2.316,1111122 
TCOON,ioos:station:TCOON:009:1,2017-10-04T23:18:00Z,27.8398,-97.0727,2.3,1111122 
TCOON,ioos:station:TCOON:009:1,2017-10-05T00:18:00Z,27.8398,-97.0727,2.274,1111122 
TCOON,ioos:station:TCOON:009:1,2017-10-05T01:18:00Z,27.8398,-97.0727,2.267,1111122 
TCOON,ioos:station:TCOON:009:1,2017-10-05T02:18:00Z,27.8398,-97.0727,2.296,1111122 
TCOON,ioos:station:TCOON:009:1,2017-10-05T03:18:00Z,27.8398,-97.0727,2.261,1111122 
TCOON,ioos:station:TCOON:009:1,2017-10-05T04:18:00Z,27.8398,-97.0727,2.277,1111122 
TCOON,ioos:station:TCOON:009:1,2017-10-05T05:18:00Z,27.8398,-97.0727,2.316,1111122 
TCOON,ioos:station:TCOON:009:1,2017-10-05T06:18:00Z,27.8398,-97.0727,2.364,1111122 
TCOON,ioos:station:TCOON:009:1,2017-10-05T07:18:00Z,27.8398,-97.0727,2.377,1111122 
TCOON,ioos:station:TCOON:009:1,2017-10-05T08:18:00Z,27.8398,-97.0727,2.378,1111122 
TCOON,ioos:station:TCOON:009:1,2017-10-05T09:18:00Z,27.8398,-97.0727,2.366,1111122 
TCOON,ioos:station:TCOON:009:1,2017-10-05T10:18:00Z,27.8398,-97.0727,2.342,1111122 
TCOON,ioos:station:TCOON:009:1,2017-10-05T11:18:00Z,27.8398,-97.0727,2.324,1111122 
TCOON,ioos:station:TCOON:009:1,2017-10-05T12:18:00Z,27.8398,-97.0727,2.302,1111122 
TCOON,ioos:station:TCOON:009:1,2017-10-05T13:18:00Z,27.8398,-97.0727,2.33,1111122 
TCOON,ioos:station:TCOON:009:1,2017-10-05T14:18:00Z,27.8398,-97.0727,2.314,1111122 
TCOON,ioos:station:TCOON:009:1,2017-10-05T15:18:00Z,27.8398,-97.0727,2.304,1111122 
TCOON,ioos:station:TCOON:009:1,2017-10-05T16:18:00Z,27.8398,-97.0727,2.306,1111122 
TCOON,ioos:station:TCOON:009:1,2017-10-05T17:30:00Z,27.8398,-97.0727,2.352,1111122 
TCOON,ioos:station:TCOON:009:1,2017-10-05T18:24:00Z,27.8398,-97.0727,2.351,1111122 
TCOON,ioos:station:TCOON:009:1,2017-10-05T19:30:00Z,27.8398,-97.0727,2.394,1111122 
TCOON,ioos:station:TCOON:009:1,2017-10-05T20:18:00Z,27.8398,-97.0727,2.393,1111122 
TCOON,ioos:station:TCOON:009:1,2017-10-05T21:18:00Z,27.8398,-97.0727,2.361,1111122 
TCOON,ioos:station:TCOON:009:1,2017-10-05T22:18:00Z,27.8398,-97.0727,2.347,1111122 
TCOON,ioos:station:TCOON:009:1,2017-10-05T23:18:00Z,27.8398,-97.0727,2.303,1111122 
TCOON,ioos:station:TCOON:009:1,2017-10-06T00:18:00Z,27.8398,-97.0727,2.309,1111122 
TCOON,ioos:station:TCOON:009:1,2017-10-06T01:18:00Z,27.8398,-97.0727,2.261,1111122 
TCOON,ioos:station:TCOON:009:1,2017-10-06T02:18:00Z,27.8398,-97.0727,2.226,1111122 
TCOON,ioos:station:TCOON:009:1,2017-10-06T03:18:00Z,27.8398,-97.0727,2.217,1111122 
TCOON,ioos:station:TCOON:009:1,2017-10-06T04:18:00Z,27.8398,-97.0727,2.218,1111122 
TCOON,ioos:station:TCOON:009:1,2017-10-06T05:18:00Z,27.8398,-97.0727,2.236,1111122 
TCOON,ioos:station:TCOON:009:1,2017-10-06T06:18:00Z,27.8398,-97.0727,2.255,1111122 
TCOON,ioos:station:TCOON:009:1,2017-10-06T07:18:00Z,27.8398,-97.0727,2.277,1111122 
TCOON,ioos:station:TCOON:009:1,2017-10-06T08:18:00Z,27.8398,-97.0727,2.313,1111122 
TCOON,ioos:station:TCOON:009:1,2017-10-06T09:18:00Z,27.8398,-97.0727,2.283,1111122 
TCOON,ioos:station:TCOON:009:1,2017-10-06T10:18:00Z,27.8398,-97.0727,2.271,1111122 
TCOON,ioos:station:TCOON:009:1,2017-10-06T11:18:00Z,27.8398,-97.0727,2.245,1111122 
TCOON,ioos:station:TCOON:009:1,2017-10-06T12:18:00Z,27.8398,-97.0727,2.189,1111122 
TCOON,ioos:station:TCOON:009:1,2017-10-06T13:18:00Z,27.8398,-97.0727,2.167,1111122 
TCOON,ioos:station:TCOON:009:1,2017-10-06T14:18:00Z,27.8398,-97.0727,2.156,1111122 
TCOON,ioos:station:TCOON:009:1,2017-10-06T15:18:00Z,27.8398,-97.0727,2.184,1111122 
TCOON,ioos:station:TCOON:009:1,2017-10-06T16:18:00Z,27.8398,-97.0727,2.186,1111122 
TCOON,ioos:station:TCOON:009:1,2017-10-06T17:18:00Z,27.8398,-97.0727,2.214,1111122 
TCOON,ioos:station:TCOON:009:1,2017-10-06T18:18:00Z,27.8398,-97.0727,2.251,1111122 
TCOON,ioos:station:TCOON:009:1,2017-10-06T19:18:00Z,27.8398,-97.0727,2.288,1111122 
TCOON,ioos:station:TCOON:009:1,2017-10-06T20:18:00Z,27.8398,-97.0727,2.325,1111122 
TCOON,ioos:station:TCOON:009:1,2017-10-06T21:18:00Z,27.8398,-97.0727,2.335,1111122 
TCOON,ioos:station:TCOON:009:1,2017-10-06T22:18:00Z,27.8398,-97.0727,2.329,1111122 
TCOON,ioos:station:TCOON:009:1,2017-10-06T23:18:00Z,27.8398,-97.0727,2.296,1111122 
TCOON,ioos:station:TCOON:009:1,2017-10-07T00:18:00Z,27.8398,-97.0727,2.288,1111122 
TCOON,ioos:station:TCOON:009:1,2017-10-07T01:18:00Z,27.8398,-97.0727,2.29,1111122 
TCOON,ioos:station:TCOON:009:1,2017-10-07T02:18:00Z,27.8398,-97.0727,2.282,1111122 
TCOON,ioos:station:TCOON:009:1,2017-10-07T03:18:00Z,27.8398,-97.0727,2.256,1111122 
TCOON,ioos:station:TCOON:009:1,2017-10-07T04:18:00Z,27.8398,-97.0727,2.25,1111122 
TCOON,ioos:station:TCOON:009:1,2017-10-07T05:18:00Z,27.8398,-97.0727,2.248,1111122 
TCOON,ioos:station:TCOON:009:1,2017-10-07T06:18:00Z,27.8398,-97.0727,2.243,1111122 
TCOON,ioos:station:TCOON:009:1,2017-10-07T07:18:00Z,27.8398,-97.0727,2.282,1111122 
TCOON,ioos:station:TCOON:009:1,2017-10-07T08:18:00Z,27.8398,-97.0727,2.306,1111122 
TCOON,ioos:station:TCOON:009:1,2017-10-07T09:18:00Z,27.8398,-97.0727,2.32,1111122 
TCOON,ioos:station:TCOON:009:1,2017-10-07T10:18:00Z,27.8398,-97.0727,2.293,1111122 
TCOON,ioos:station:TCOON:009:1,2017-10-07T11:18:00Z,27.8398,-97.0727,2.249,1111122 
TCOON,ioos:station:TCOON:009:1,2017-10-07T12:18:00Z,27.8398,-97.0727,2.244,1111122 
TCOON,ioos:station:TCOON:009:1,2017-10-07T13:18:00Z,27.8398,-97.0727,2.194,1111122 
TCOON,ioos:station:TCOON:009:1,2017-10-07T14:18:00Z,27.8398,-97.0727,2.181,1111122 
TCOON,ioos:station:TCOON:009:1,2017-10-07T15:18:00Z,27.8398,-97.0727,2.167,1111122 
TCOON,ioos:station:TCOON:009:1,2017-10-07T16:18:00Z,27.8398,-97.0727,2.135,1111122 
TCOON,ioos:station:TCOON:009:1,2017-10-07T17:18:00Z,27.8398,-97.0727,2.083,1111122 
TCOON,ioos:station:TCOON:009:1,2017-10-07T18:18:00Z,27.8398,-97.0727,2.215,1111122 
TCOON,ioos:station:TCOON:009:1,2017-10-07T19:18:00Z,27.8398,-97.0727,2.29,1111122 
TCOON,ioos:station:TCOON:009:1,2017-10-07T20:18:00Z,27.8398,-97.0727,2.323,1111122 
TCOON,ioos:station:TCOON:009:1,2017-10-07T21:18:00Z,27.8398,-97.0727,2.345,1111122 
TCOON,ioos:station:TCOON:009:1,2017-10-07T22:18:00Z,27.8398,-97.0727,2.348,1111122 
TCOON,ioos:station:TCOON:009:1,2017-10-07T23:18:00Z,27.8398,-97.0727,2.352,1111122 
TCOON,ioos:station:TCOON:009:1,2017-10-08T00:18:00Z,27.8398,-97.0727,2.354,1111122 
TCOON,ioos:station:TCOON:009:1,2017-10-08T01:18:00Z,27.8398,-97.0727,2.353,1111122 
TCOON,ioos:station:TCOON:009:1,2017-10-08T02:18:00Z,27.8398,-97.0727,2.199,1111122 
TCOON,ioos:station:TCOON:009:1,2017-10-08T03:18:00Z,27.8398,-97.0727,2.32,1111122 
TCOON,ioos:station:TCOON:009:1,2017-10-08T04:18:00Z,27.8398,-97.0727,2.303,1111122 
TCOON,ioos:station:TCOON:009:1,2017-10-08T05:18:00Z,27.8398,-97.0727,2.322,1111122 
TCOON,ioos:station:TCOON:009:1,2017-10-08T06:18:00Z,27.8398,-97.0727,2.318,1111122 
TCOON,ioos:station:TCOON:009:1,2017-10-08T07:18:00Z,27.8398,-97.0727,2.302,1111122 
TCOON,ioos:station:TCOON:009:1,2017-10-08T08:18:00Z,27.8398,-97.0727,2.303,1111122 
TCOON,ioos:station:TCOON:009:1,2017-10-08T09:18:00Z,27.8398,-97.0727,2.29,1111122 
TCOON,ioos:station:TCOON:009:1,2017-10-08T10:18:00Z,27.8398,-97.0727,2.253,1111122 
TCOON,ioos:station:TCOON:009:1,2017-10-08T11:18:00Z,27.8398,-97.0727,2.235,1111122 
TCOON,ioos:station:TCOON:009:1,2017-10-08T12:18:00Z,27.8398,-97.0727,2.189,1111122 
TCOON,ioos:station:TCOON:009:1,2017-10-08T13:18:00Z,27.8398,-97.0727,2.09,1111122 
TCOON,ioos:station:TCOON:009:1,2017-10-08T14:18:00Z,27.8398,-97.0727,2.033,1111122 
TCOON,ioos:station:TCOON:009:1,2017-10-08T15:18:00Z,27.8398,-97.0727,2.027,1111122 
TCOON,ioos:station:TCOON:009:1,2017-10-08T16:18:00Z,27.8398,-97.0727,2.002,1111122 
TCOON,ioos:station:TCOON:009:1,2017-10-08T17:18:00Z,27.8398,-97.0727,2.017,1111122 
TCOON,ioos:station:TCOON:009:1,2017-10-08T18:18:00Z,27.8398,-97.0727,2.054,1111122 
TCOON,ioos:station:TCOON:009:1,2017-10-08T19:18:00Z,27.8398,-97.0727,2.094,1111122 
TCOON,ioos:station:TCOON:009:1,2017-10-08T20:18:00Z,27.8398,-97.0727,2.174,1111122 
TCOON,ioos:station:TCOON:009:1,2017-10-08T21:18:00Z,27.8398,-97.0727,2.203,1111122 
TCOON,ioos:station:TCOON:009:1,2017-10-08T22:18:00Z,27.8398,-97.0727,2.276,1111122 
TCOON,ioos:station:TCOON:009:1,2017-10-08T23:18:00Z,27.8398,-97.0727,2.284,1111122 
TCOON,ioos:station:TCOON:009:1,2017-10-09T00:18:00Z,27.8398,-97.0727,2.259,1111122 
TCOON,ioos:station:TCOON:009:1,2017-10-09T01:18:00Z,27.8398,-97.0727,2.275,1111122 
TCOON,ioos:station:TCOON:009:1,2017-10-09T02:18:00Z,27.8398,-97.0727,2.286,1111122 
TCOON,ioos:station:TCOON:009:1,2017-10-09T03:18:00Z,27.8398,-97.0727,2.275,1111122 
TCOON,ioos:station:TCOON:009:1,2017-10-09T04:18:00Z,27.8398,-97.0727,2.284,1111122 
TCOON,ioos:station:TCOON:009:1,2017-10-09T05:18:00Z,27.8398,-97.0727,2.278,1111122 
TCOON,ioos:station:TCOON:009:1,2017-10-09T06:18:00Z,27.8398,-97.0727,2.218,1111122 
TCOON,ioos:station:TCOON:009:1,2017-10-09T07:18:00Z,27.8398,-97.0727,2.269,1111122 
TCOON,ioos:station:TCOON:009:1,2017-10-09T08:18:00Z,27.8398,-97.0727,2.266,1111122 
TCOON,ioos:station:TCOON:009:1,2017-10-09T09:18:00Z,27.8398,-97.0727,2.265,1111122 
TCOON,ioos:station:TCOON:009:1,2017-10-09T10:18:00Z,27.8398,-97.0727,2.248,1111122 
TCOON,ioos:station:TCOON:009:1,2017-10-09T11:18:00Z,27.8398,-97.0727,2.21,1111122 
TCOON,ioos:station:TCOON:009:1,2017-10-09T12:18:00Z,27.8398,-97.0727,2.183,1111122 
TCOON,ioos:station:TCOON:009:1,2017-10-09T13:18:00Z,27.8398,-97.0727,2.099,1111122 
TCOON,ioos:station:TCOON:009:1,2017-10-09T14:18:00Z,27.8398,-97.0727,2.068,1111122 
TCOON,ioos:station:TCOON:009:1,2017-10-09T15:18:00Z,27.8398,-97.0727,1.967,1111122 
TCOON,ioos:station:TCOON:009:1,2017-10-09T16:18:00Z,27.8398,-97.0727,1.939,1111122 
TCOON,ioos:station:TCOON:009:1,2017-10-09T17:24:00Z,27.8398,-97.0727,1.92,1111122 
TCOON,ioos:station:TCOON:009:1,2017-10-09T18:18:00Z,27.8398,-97.0727,1.932,1111122 
TCOON,ioos:station:TCOON:009:1,2017-10-09T19:18:00Z,27.8398,-97.0727,1.944,1111122 
TCOON,ioos:station:TCOON:009:1,2017-10-09T20:18:00Z,27.8398,-97.0727,2.006,1111122 
TCOON,ioos:station:TCOON:009:1,2017-10-09T21:18:00Z,27.8398,-97.0727,2.074,1111122 
TCOON,ioos:station:TCOON:009:1,2017-10-09T22:18:00Z,27.8398,-97.0727,2.147,1111122 
TCOON,ioos:station:TCOON:009:1,2017-10-09T23:18:00Z,27.8398,-97.0727,2.182,1111122 
TCOON,ioos:station:TCOON:009:1,2017-10-10T00:18:00Z,27.8398,-97.0727,2.188,1111122 
TCOON,ioos:station:TCOON:009:1,2017-10-10T01:18:00Z,27.8398,-97.0727,2.185,1111122 
TCOON,ioos:station:TCOON:009:1,2017-10-10T02:18:00Z,27.8398,-97.0727,2.188,1111122 
TCOON,ioos:station:TCOON:009:1,2017-10-10T03:18:00Z,27.8398,-97.0727,2.205,1111122 
TCOON,ioos:station:TCOON:009:1,2017-10-10T04:18:00Z,27.8398,-97.0727,2.202,1111122 
TCOON,ioos:station:TCOON:009:1,2017-10-10T05:18:00Z,27.8398,-97.0727,2.207,1111122 
TCOON,ioos:station:TCOON:009:1,2017-10-10T06:18:00Z,27.8398,-97.0727,2.207,1111122 
TCOON,ioos:station:TCOON:009:1,2017-10-10T07:18:00Z,27.8398,-97.0727,2.202,1111122 
TCOON,ioos:station:TCOON:009:1,2017-10-10T08:18:00Z,27.8398,-97.0727,2.202,1111122 
TCOON,ioos:station:TCOON:009:1,2017-10-10T09:18:00Z,27.8398,-97.0727,2.2,1111122 
TCOON,ioos:station:TCOON:009:1,2017-10-10T10:18:00Z,27.8398,-97.0727,2.201,1111122 
TCOON,ioos:station:TCOON:009:1,2017-10-10T11:18:00Z,27.8398,-97.0727,2.07,1111122 
TCOON,ioos:station:TCOON:009:1,2017-10-10T12:18:00Z,27.8398,-97.0727,2.122,1111122 
TCOON,ioos:station:TCOON:009:1,2017-10-10T13:18:00Z,27.8398,-97.0727,2.081,1111122 
TCOON,ioos:station:TCOON:009:1,2017-10-10T14:18:00Z,27.8398,-97.0727,1.993,1111122 
TCOON,ioos:station:TCOON:009:1,2017-10-10T15:18:00Z,27.8398,-97.0727,1.98,1111122 
TCOON,ioos:station:TCOON:009:1,2017-10-10T16:18:00Z,27.8398,-97.0727,1.953,1111122 
TCOON,ioos:station:TCOON:009:1,2017-10-10T17:18:00Z,27.8398,-97.0727,1.888,1111122 
TCOON,ioos:station:TCOON:009:1,2017-10-10T18:18:00Z,27.8398,-97.0727,1.831,1111122 
TCOON,ioos:station:TCOON:009:1,2017-10-10T19:18:00Z,27.8398,-97.0727,1.827,1111122 
TCOON,ioos:station:TCOON:009:1,2017-10-10T20:18:00Z,27.8398,-97.0727,1.911,1111122 
TCOON,ioos:station:TCOON:009:1,2017-10-10T21:18:00Z,27.8398,-97.0727,1.926,1111122 
TCOON,ioos:station:TCOON:009:1,2017-10-10T22:18:00Z,27.8398,-97.0727,2.042,1111122 
TCOON,ioos:station:TCOON:009:1,2017-10-10T23:18:00Z,27.8398,-97.0727,2.099,1111122 
TCOON,ioos:station:TCOON:009:1,2017-10-11T00:18:00Z,27.8398,-97.0727,2.171,1111122 
TCOON,ioos:station:TCOON:009:1,2017-10-11T01:18:00Z,27.8398,-97.0727,2.164,1111122 
TCOON,ioos:station:TCOON:009:1,2017-10-11T02:18:00Z,27.8398,-97.0727,2.203,1111122 
TCOON,ioos:station:TCOON:009:1,2017-10-11T03:18:00Z,27.8398,-97.0727,2.212,1111122 
TCOON,ioos:station:TCOON:009:1,2017-10-11T04:18:00Z,27.8398,-97.0727,2.179,1111122 
TCOON,ioos:station:TCOON:009:1,2017-10-11T05:18:00Z,27.8398,-97.0727,2.227,1111122 
TCOON,ioos:station:TCOON:009:1,2017-10-11T06:18:00Z,27.8398,-97.0727,2.21,1111122 
TCOON,ioos:station:TCOON:009:1,2017-10-11T07:18:00Z,27.8398,-97.0727,2.201,1111122 
TCOON,ioos:station:TCOON:009:1,2017-10-11T08:18:00Z,27.8398,-97.0727,2.173,1111122 
TCOON,ioos:station:TCOON:009:1,2017-10-11T09:18:00Z,27.8398,-97.0727,2.178,1111122 
TCOON,ioos:station:TCOON:009:1,2017-10-11T10:18:00Z,27.8398,-97.0727,2.193,1111122 
TCOON,ioos:station:TCOON:009:1,2017-10-11T11:18:00Z,27.8398,-97.0727,2.207,1111122 
TCOON,ioos:station:TCOON:009:1,2017-10-11T12:18:00Z,27.8398,-97.0727,2.147,1111122 
TCOON,ioos:station:TCOON:009:1,2017-10-11T13:18:00Z,27.8398,-97.0727,2.081,1111122 
TCOON,ioos:station:TCOON:009:1,2017-10-11T14:18:00Z,27.8398,-97.0727,2.081,1111122 
TCOON,ioos:station:TCOON:009:1,2017-10-11T15:18:00Z,27.8398,-97.0727,2.057,1111122 
TCOON,ioos:station:TCOON:009:1,2017-10-11T16:18:00Z,27.8398,-97.0727,1.902,1111122 
TCOON,ioos:station:TCOON:009:1,2017-10-11T17:18:00Z,27.8398,-97.0727,1.876,1111122 
TCOON,ioos:station:TCOON:009:1,2017-10-11T18:18:00Z,27.8398,-97.0727,1.888,1111122 
TCOON,ioos:station:TCOON:009:1,2017-10-11T19:18:00Z,27.8398,-97.0727,1.848,1111122 
TCOON,ioos:station:TCOON:009:1,2017-10-11T20:18:00Z,27.8398,-97.0727,1.822,1111122 
TCOON,ioos:station:TCOON:009:1,2017-10-11T21:18:00Z,27.8398,-97.0727,1.843,1111122 
TCOON,ioos:station:TCOON:009:1,2017-10-11T22:18:00Z,27.8398,-97.0727,1.957,1111122 
TCOON,ioos:station:TCOON:009:1,2017-10-11T23:18:00Z,27.8398,-97.0727,1.959,1111122 
TCOON,ioos:station:TCOON:009:1,2017-10-12T00:18:00Z,27.8398,-97.0727,2.059,1111122 
TCOON,ioos:station:TCOON:009:1,2017-10-12T01:18:00Z,27.8398,-97.0727,2.068,1111122 
TCOON,ioos:station:TCOON:009:1,2017-10-12T02:18:00Z,27.8398,-97.0727,2.09,1111122 
TCOON,ioos:station:TCOON:009:1,2017-10-12T03:18:00Z,27.8398,-97.0727,2.136,1111122 
TCOON,ioos:station:TCOON:009:1,2017-10-12T04:24:00Z,27.8398,-97.0727,2.151,1111122 
TCOON,ioos:station:TCOON:009:1,2017-10-12T05:18:00Z,27.8398,-97.0727,2.146,1111122 
TCOON,ioos:station:TCOON:009:1,2017-10-12T06:18:00Z,27.8398,-97.0727,2.176,1111122 
TCOON,ioos:station:TCOON:009:1,2017-10-12T07:18:00Z,27.8398,-97.0727,2.175,1111122 
TCOON,ioos:station:TCOON:009:1,2017-10-12T08:18:00Z,27.8398,-97.0727,2.187,1111122 
TCOON,ioos:station:TCOON:009:1,2017-10-12T09:18:00Z,27.8398,-97.0727,2.177,1111122 
TCOON,ioos:station:TCOON:009:1,2017-10-12T10:18:00Z,27.8398,-97.0727,2.149,1111122 
TCOON,ioos:station:TCOON:009:1,2017-10-12T11:18:00Z,27.8398,-97.0727,2.15,1111122 
TCOON,ioos:station:TCOON:009:1,2017-10-12T12:18:00Z,27.8398,-97.0727,2.149,1111122 
TCOON,ioos:station:TCOON:009:1,2017-10-12T13:18:00Z,27.8398,-97.0727,2.128,1111122 
TCOON,ioos:station:TCOON:009:1,2017-10-12T14:18:00Z,27.8398,-97.0727,2.092,1111122 
TCOON,ioos:station:TCOON:009:1,2017-10-12T15:18:00Z,27.8398,-97.0727,2.063,1111122 
TCOON,ioos:station:TCOON:009:1,2017-10-12T16:18:00Z,27.8398,-97.0727,1.995,1111122 
TCOON,ioos:station:TCOON:009:1,2017-10-12T17:18:00Z,27.8398,-97.0727,1.969,1111122 
TCOON,ioos:station:TCOON:009:1,2017-10-12T18:18:00Z,27.8398,-97.0727,1.942,1111122 
TCOON,ioos:station:TCOON:009:1,2017-10-12T19:18:00Z,27.8398,-97.0727,1.896,1111122 
TCOON,ioos:station:TCOON:009:1,2017-10-12T20:18:00Z,27.8398,-97.0727,1.877,1111122 
TCOON,ioos:station:TCOON:009:1,2017-10-12T21:18:00Z,27.8398,-97.0727,1.899,1111122 
TCOON,ioos:station:TCOON:009:1,2017-10-12T22:18:00Z,27.8398,-97.0727,1.891,1111122 